Dallas Addison, TX

12:46 AM CDT on May 30, 2017 (GMT -0500)
Addison

Weather History for KADS - June, 2013

Change the Weather History Date:

Tuesday, June 11, 2013

  Actual Average Record
Temperature  
Mean Temperature 85 °F -  
Max Temperature 93 °F 87 °F 102 °F (2003)
Min Temperature 77 °F 70 °F 67 °F (2014)
Cooling Degree Days 20    
Growing Degree Days 35 (Base 50)    
Moisture  
Dew Point 66 °F    
Average Humidity 58    
Maximum Humidity 78    
Minimum Humidity 38    
Precipitation  
Precipitation 0.00 in - - ()
Sea Level Pressure  
Sea Level Pressure 29.98 in    
Wind  
Wind Speed 9 mph (South)    
Max Wind Speed 15 mph    
Max Gust Speed 30 mph    
Visibility 12 miles    
Events      
Averages and records for this station are not official NWS values.
T = Trace of Precipitation, MM = Missing Value Source: NWS Daily Summary

Daily Weather History Graph

Daily Weather History Graph

Search for Another Location

Airport or City:

Trip Planner

Search our weather history database for the weather conditions in past years. The results will help you decide how hot, cold, wet, or windy it might be!

Date:

Astronomy

Jun. 11, 2013 Rise Set
Actual Time 6:18 AM CDT 8:36 PM CDT
Civil Twilight 5:49 AM CDT 9:04 PM CDT
Nautical Twilight 5:14 AM CDT 9:39 PM CDT
Astronomical Twilight 4:36 AM CDT 10:17 PM CDT
Moon 8:56 AM CDT (6/11) 10:47 PM CDT (6/11)
Length of Visible Light 15h 15m
Length of Day
14h 17m
Waxing Crescent, 8% of the Moon is Illuminated
Jun 11
Waxing Crescent
Jun 16
First Quarter
Jun 23
Full
Jun 29
Last Quarter
Jul 8
New

Hourly Weather History & Observations

Time (CDT) Temp. Heat Index Dew Point Humidity Pressure Visibility Wind Dir Wind Speed Gust Speed Precip Events Conditions
12:15 AM 82.4 °F 83.4 °F 62.6 °F 51% 29.97 in 10.0 mi South 4.6 mph - N/A   Clear
12:35 AM 82.4 °F 83.4 °F 62.6 °F 51% 29.97 in 10.0 mi South 8.1 mph - N/A   Clear
12:55 AM 82.4 °F 83.4 °F 62.6 °F 51% 29.97 in 10.0 mi South 9.2 mph - N/A   Clear
1:15 AM 80.6 °F 81.8 °F 62.6 °F 54% 29.97 in 10.0 mi South 6.9 mph - N/A   Clear
1:35 AM 80.6 °F 81.8 °F 62.6 °F 54% 29.97 in 10.0 mi South 8.1 mph - N/A   Clear
1:55 AM 80.6 °F 82.3 °F 64.4 °F 58% 29.97 in 10.0 mi South 6.9 mph - N/A   Clear
2:15 AM 80.6 °F 82.3 °F 64.4 °F 58% 29.97 in 10.0 mi South 5.8 mph - N/A   Clear
2:35 AM 80.6 °F 82.3 °F 64.4 °F 58% 29.96 in 10.0 mi South 8.1 mph - N/A   Clear
2:55 AM 80.6 °F 82.3 °F 64.4 °F 58% 29.97 in 10.0 mi South 9.2 mph - N/A   Clear
3:15 AM 78.8 °F - 66.2 °F 65% 29.96 in 10.0 mi South 8.1 mph - N/A   Clear
3:35 AM 78.8 °F - 68.0 °F 69% 29.96 in 10.0 mi South 8.1 mph - N/A   Clear
3:55 AM 78.8 °F - 68.0 °F 69% 29.96 in 10.0 mi South 6.9 mph - N/A   Clear
4:15 AM 78.8 °F - 68.0 °F 69% 29.96 in 10.0 mi South 8.1 mph - N/A   Clear
4:35 AM 78.8 °F - 68.0 °F 69% 29.96 in 10.0 mi SSW 6.9 mph - N/A   Clear
4:55 AM 77.0 °F - 68.0 °F 74% 29.96 in 10.0 mi South 8.1 mph - N/A   Clear
5:15 AM 77.0 °F - 68.0 °F 74% 29.97 in 10.0 mi South 6.9 mph - N/A   Clear
5:50 AM 77.0 °F - 69.8 °F 78% 29.99 in 10.0 mi South 8.1 mph - N/A   Partly Cloudy
5:55 AM 77.0 °F - 69.8 °F 78% 29.99 in 10.0 mi South 6.9 mph - N/A   Clear
6:50 AM 77.0 °F - 69.8 °F 78% 30.00 in 15.0 mi SSE 8.1 mph - N/A   Partly Cloudy
7:47 AM 78.8 °F - 69.8 °F 74% 30.02 in 15.0 mi South 10.4 mph 17.3 mph N/A   Scattered Clouds
9:51 AM 84.2 °F 88.4 °F 69.8 °F 62% 30.04 in 15.0 mi South 13.8 mph - N/A   Mostly Cloudy
10:47 AM 86.0 °F 90.4 °F 69.8 °F 58% 30.03 in 15.0 mi South 10.4 mph - N/A   Partly Cloudy
11:53 AM 87.8 °F 92.6 °F 69.8 °F 55% 30.03 in 20.0 mi South 8.1 mph 17.3 mph N/A   Scattered Clouds
12:47 PM 89.6 °F 93.4 °F 68.0 °F 49% 30.02 in 20.0 mi SSE 13.8 mph 20.7 mph N/A   Scattered Clouds
1:47 PM 89.6 °F 92.2 °F 66.2 °F 46% 30.01 in 13.0 mi South 10.4 mph 21.9 mph N/A   Scattered Clouds
2:47 PM 91.4 °F 95.4 °F 68.0 °F 46% 29.99 in 13.0 mi SSE 15.0 mph 29.9 mph N/A   Scattered Clouds
3:58 PM 91.4 °F 94.0 °F 66.2 °F 43% 29.98 in 13.0 mi South 11.5 mph 24.2 mph N/A   Scattered Clouds
4:47 PM 91.4 °F 93.2 °F 64.4 °F 41% 29.97 in 13.0 mi South 15.0 mph 20.7 mph N/A   Scattered Clouds
5:47 PM 93.2 °F 94.9 °F 64.4 °F 38% 29.96 in 13.0 mi South 15.0 mph 23.0 mph N/A   Scattered Clouds
6:47 PM 91.4 °F 93.2 °F 64.4 °F 41% 29.94 in 13.0 mi South 15.0 mph 20.7 mph N/A   Scattered Clouds
8:47 PM 87.8 °F 89.4 °F 64.4 °F 46% 29.94 in 13.0 mi South 11.5 mph 15.0 mph N/A   Scattered Clouds
9:47 PM 87.8 °F 91.4 °F 68.0 °F 52% 29.95 in 13.0 mi South 12.7 mph 20.7 mph N/A   Partly Cloudy
10:15 PM 86.0 °F 89.4 °F 68.0 °F 55% 29.96 in 10.0 mi South 13.8 mph 18.4 mph N/A   Clear
10:35 PM 86.0 °F 88.2 °F 66.2 °F 51% 29.96 in 10.0 mi South 8.1 mph 19.6 mph N/A   Clear
10:55 PM 86.0 °F 88.2 °F 66.2 °F 51% 29.97 in 10.0 mi South 11.5 mph 18.4 mph N/A   Clear
11:15 PM 86.0 °F 88.2 °F 66.2 °F 51% 29.97 in 10.0 mi South 12.7 mph 19.6 mph N/A   Clear
11:35 PM 84.2 °F 86.6 °F 66.2 °F 55% 29.98 in 10.0 mi South 10.4 mph 20.7 mph N/A   Clear
11:55 PM 82.4 °F 84.6 °F 66.2 °F 58% 29.97 in 10.0 mi South 10.4 mph 19.6 mph N/A   Clear